Regional Weather Roundup
Issued by NWS Sioux Falls, SD

Home | Current Version | Previous Version | Graphics & Text | Print | Product List | Glossary Off
Versions: 1 2 3 4 5 6 7 8 9 10 11 12 13 14 15 16 17 18 19 20 21 22 23 24 25 26 27 28 29 30 31 32 33 34 35 36 37 38 39 40 41 42 43 44 45 46 47 48 49 50

000
ASUS43 KFSD 241110
RWRFSD

WEATHER ROUNDUP FOR SE SOUTH DAKOTA/SW MINNESOTA/NW IOWA
NATIONAL WEATHER SERVICE SIOUX FALLS SD
600 AM CDT FRI OCT 24 2014

NOTE: "FAIR" INDICATES FEW OR NO CLOUDS BELOW 12,000 FEET WITH NO
SIGNIFICANT WEATHER AND OR OBSTRUCTIONS TO VISIBILITY.


SDZ038>040-050-052>070-241200-
SOUTHEAST SOUTH DAKOTA

CITY           SKY/WX    TMP DP  RH WIND       PRES   REMARKS
CHAMBERLAIN    CLOUDY    45  36  70 W7        29.86S
HURON          FOG       36  36 100 W3        29.84R VSB 1/2
MADISON        FOG       45  45 100 S5        29.84S VSB<1/4
MITCHELL       MOCLDY    47  41  80 W9        29.86R
SIOUX FALLS    MOCLDY    53  51  93 SW3       29.84S
WINNER         FAIR      50  33  52 SW7       29.88S
YANKTON        PTCLDY    55  52  88 SW7       29.85F
$$

MNZ071-072-080-081-089-090-097-098-241200-
SOUTHWEST MINNESOTA

CITY           SKY/WX    TMP DP  RH WIND       PRES   REMARKS
FAIRMONT       MOCLDY    48  43  81 S12       29.88F
JACKSON        PTCLDY    52  45  76 S8        29.87F
LUVERNE        PTCLDY    46  43  87 S3        29.86S
MARSHALL       MOCLDY    52  45  76 SW9       29.83R
MONTEVIDEO     MOCLDY    45  43  93 S6        29.84F
PIPESTONE      PTCLDY    50  46  87 SW5       29.85S
REDWOOD FALLS  MOCLDY    46  42  86 SE8       29.84F
TRACY          MOCLDY    54  48  81 SW14      29.84S
WINDOM         FAIR      52  46  82 S5        29.86F
WORTHINGTON    PTCLDY    54  46  76 S9        29.87S
$$

IAZ001>003-012>014-020>022-031-032-NEZ013-014-SDZ071-241200-
NORTHWEST IOWA

CITY           SKY/WX    TMP DP  RH WIND       PRES   REMARKS
CHEROKEE       MOCLDY    55  54  94 S7        29.88F
DENISON        MOCLDY    55  55 100 S8        29.92F
ESTHERVILLE    PTCLDY    47  44  90 S14       29.87F
LE MARS        MOCLDY    54  52  94 S8        29.88S
ORANGE CITY    MOCLDY    54  50  87 S6        29.87S
SHELDON        MOCLDY    54  50  87 S7        29.86F
SIOUX CITY     MOCLDY    55  52  89 S8        29.88F
SPENCER        MOCLDY    53  49  86 S9        29.87F
STORM LAKE     MOCLDY    54  52  94 S9        29.91F
$$

ABBREVIATIONS USED IN REMARKS
   TC - TEMPERATURE IN CELSIUS
  WCI - WIND CHILL INDEX
   HX - HEAT INDEX
  VSB - VISIBILITY




USA.gov is the U.S. government's official web portal to all federal, state and local government web resources and services.